DECAYED

STARLINK-1605, 46123 (Decayed)

Orbit data source: Space-Track

STARLINK-1605, 46123 was a payload satellite owned by SpaceX/Seattle (US) in LEO that was launched on Tue, 18 Aug 2020 UTC via an FALCON 9 launch vehicle from the Air Force Eastern Test Range (AFETR). Payload-class satellites include a variety of spacecraft equipped with specific instruments for various scientific and technological missions. These include communications satellites like Starlink; space stations such as the ISS; scientific satellites like the Hubble; Earth observation satellites from companies like Planet Labs, Umbra, and HawkEye 360; GPS; miniature CubeSats for education and research; and military/defense satellites.

Not visible in the next 10 days
Identifier
46123, 2020-057G
Orbit
Decayed
Country
Flag of USUS
Related business
Manufacturer
SpaceX/Seattle
Mission
Decayed Commercial Communications
Bus & Motor
STARLINK, Unknown motor
Mass
260 kg wet, ~248 kg dry
Launch date (UTC)
2020-08-18 (6 years ago)
Launch vehicle
FALCON 9
Launch site
Air Force Eastern Test Range (AFETR)
Object type
Payload
Rocket body
Debris
Shape & HBR
Box + 1 Pan, 10.1 m
Radar Cross Section
13.562 m², Large (>1 m²)

Expand to show TLE details & history
Last TLE update: 3 months ago

TLE from 3 months ago
0 STARLINK-1605
1 46123U 20057G   26042.78550889  .14380811  12510-4  32957-3 0  9992
2 46123  53.0212 326.7721 0004033 246.2158 113.8469 16.46294808304925
Epoch: 2026-02-11T18:51Z
TLE epoch observation values (Epoch: 2026-02-11T18:51:07.968Z)
Latitude
0.00006°
Longitude
-97.85769°
Altitude
151.105 km
Speed
7.816 km/s
True Right ascension
21h 47m 05s
True Declination
0° 00' 00"
Sunlit
Object was in daylight at epoch
Visualization orbit readout
Latitude
Unknown
Longitude
Unknown
Altitude
Unknown
Speed
Unknown
Apparent Right ascension
Unknown
Apparent Declination
Unknown
Sunlit
N/A
Visualization observer readout
Local Sidereal Time
18:32:39
Azimuth
Unknown
Elevation
Unknown
Doppler factor
Unknown
Orbital elements
Apogee altitude
152.036 km
Perigee altitude
146.771 km
Semi-major axis
6,527.54 km
Eccentricity
0.0004
Inclination
53.0212°
RAAN
326.7721°
Arg. of periapsis
246.2158°
True anomaly
113.88916°
Mean anomaly
113.8469°
Eccentric anomaly
113.86803°
Mean motion
4.11546 °/min
Orbital period
87.47 mins
BSTAR
0.00032957
Loading maneuver chart data...
Computing Atmospheric mass density...

Documentation

Showing up to 5 results
|